Terminal Aerodrome Forecast
Issued by NWS Binghamton, NY

Home | Current Version | Previous Version | Text Only | Print | Product List | Glossary On
Versions: 1 2 3 4 5 6 7 8 9 10 11 12 13 14 15 16
000
FTUS41 KBGM 010900 AAA
TAFSYR
TAF AMD
KSYR 010901Z 0109/0206 VRB04KT P6SM SCT180
     FM011000 11005KT P6SM OVC100
     FM011300 15007KT P6SM OVC040
      TEMPO 0113/0117 2SM -SN BR OVC025
     FM011700 18009KT 2SM -SN BR OVC015=

USA.gov is the U.S. government's official web portal to all federal, state and local government web resources and services.